Date String (YYYY-MM-DD hh:mm:ss) UTC,Instrument flags,absolute air pressure of the measurement (hPa),sample flow rate (lpm),inlet stack bypass flow (lpm),air temperature of the measurement (°C),ambient temperature measured by the external sensor (°C),aerosol sample conditioner tube jacket temperature (°C),OPC LED temperature (°C),internal box temperature (°C),relative humidity of the measurement (%),span deviation,mass concentration of particles derived from Lorenz-Mie calculation of OPC scattering (μg/m³),mass concentration of particles derived from Lorenz-Mie calculation of OPC scattering (μg/m³),mass concentration of particles derived from Lorenz-Mie calculation of OPC scattering (μg/m³)
DateTimeUTC,F1_M11,P_M11,Q1_M11,Q2_M11,T1_M11,T2_M11,T3_M11,T4_M11,T5_M11,U1_M11,ZSPAN_M11,X0_M11,X2_M11,X1_M11
2024-02-14 04:00:00,SystemResetWarning,0825.2,5.00,000.00,023.1,022.3,000.0,031.7,024.9,09.9,0000.0,0007.46,0003.68,0003.19
2024-02-14 04:01:00,SystemResetWarning,0825.2,4.99,000.00,023.1,022.3,000.0,031.7,024.9,09.8,0000.0,0007.56,0003.62,0003.12
2024-02-14 04:02:00,SystemResetWarning,0825.2,4.99,000.00,023.0,022.3,000.0,031.7,024.9,09.8,0000.0,0007.55,0003.58,0003.05
2024-02-14 04:03:00,SystemResetWarning,0825.2,5.00,000.00,023.0,022.3,000.0,031.7,024.9,09.8,0000.0,0007.50,0003.50,0002.94
2024-02-14 04:04:00,SystemResetWarning,0825.2,5.01,000.00,023.0,022.3,000.0,031.7,024.9,10.1,0000.0,0007.47,0003.49,0002.92
2024-02-14 04:05:00,SystemResetWarning,0825.2,5.01,000.00,023.0,022.3,000.0,031.6,024.9,09.7,0000.0,0007.63,0003.49,0002.88
2024-02-14 04:06:00,SystemResetWarning,0825.2,4.99,000.00,023.0,022.3,000.0,031.6,024.9,09.5,0000.0,0007.67,0003.48,0002.82
2024-02-14 04:07:00,SystemResetWarning,0825.3,5.00,000.00,023.0,022.3,000.0,031.6,024.9,09.5,0000.0,0007.55,0003.44,0002.78
2024-02-14 04:08:00,SystemResetWarning,0825.2,4.99,000.00,023.0,022.2,000.0,031.6,024.9,09.5,0000.0,0007.55,0003.35,0002.66
2024-02-14 04:09:00,SystemResetWarning,0825.2,5.01,000.00,023.0,022.2,000.0,031.6,024.8,09.5,0000.0,0007.52,0003.28,0002.56
2024-02-14 04:10:00,SystemResetWarning,0825.2,5.00,000.00,023.0,022.2,000.0,031.6,024.8,09.9,0000.0,0007.52,0003.28,0002.54
2024-02-14 04:11:00,SystemResetWarning,0825.2,5.01,000.00,023.0,022.2,000.0,031.6,024.8,10.3,0000.0,0007.68,0003.30,0002.52
2024-02-14 04:12:00,SystemResetWarning,0825.2,5.00,000.00,022.9,022.2,000.0,031.6,024.8,10.2,0000.0,0007.81,0003.29,0002.52
2024-02-14 04:13:00,SystemResetWarning,0825.2,4.99,000.00,022.9,022.2,000.0,031.6,024.8,10.2,0000.0,0007.78,0003.29,0002.49
2024-02-14 04:14:00,SystemResetWarning,0825.2,5.00,000.00,022.9,022.2,000.0,031.6,024.8,09.8,0000.0,0007.70,0003.29,0002.44
2024-02-14 04:15:00,SystemResetWarning,0825.1,5.00,000.00,022.9,022.2,000.0,031.5,024.8,09.7,0000.0,0007.97,0003.31,0002.41
2024-02-14 04:16:00,SystemResetWarning,0825.1,5.00,000.00,022.9,022.2,000.0,031.5,024.8,09.6,0000.0,0008.11,0003.29,0002.38
2024-02-14 04:17:00,SystemResetWarning,0825.2,5.01,000.00,022.9,022.2,000.0,031.5,024.8,09.5,0000.0,0008.08,0003.29,0002.38
2024-02-14 04:18:00,SystemResetWarning,0825.1,5.00,000.00,022.9,022.2,000.0,031.5,024.8,10.1,0000.0,0008.32,0003.27,0002.37
2024-02-14 04:19:00,SystemResetWarning,0825.1,5.00,000.00,022.9,022.2,000.0,031.5,024.7,10.3,0000.0,0008.51,0003.30,0002.38
2024-02-14 04:20:00,SystemResetWarning,0825.2,5.00,000.00,022.9,022.1,000.0,031.5,024.7,10.4,0000.0,0008.65,0003.33,0002.40
2024-02-14 04:21:00,SystemResetWarning,0825.2,5.01,000.00,022.8,022.1,000.0,031.4,024.7,10.3,0000.0,0008.71,0003.33,0002.41
2024-02-14 04:22:00,SystemResetWarning,0825.1,5.00,000.00,022.8,022.1,000.0,031.4,024.7,10.3,0000.0,0008.63,0003.30,0002.41
2024-02-14 04:23:00,SystemResetWarning,0825.1,5.00,000.00,022.8,022.1,000.0,031.4,024.6,10.5,0000.0,0008.17,0003.28,0002.41
2024-02-14 04:24:00,SystemResetWarning,0825.1,5.00,000.00,022.8,022.1,000.0,031.4,024.6,10.5,0000.0,0008.16,0003.24,0002.41
2024-02-14 04:25:00,SystemResetWarning,0825.1,5.00,000.00,022.8,022.1,000.0,031.4,024.6,10.8,0000.0,0008.24,0003.24,0002.45
2024-02-14 04:26:00,SystemResetWarning,0825.1,5.00,000.00,022.8,022.0,000.0,031.4,024.6,10.8,0000.0,0008.40,0003.24,0002.48
2024-02-14 04:27:00,SystemResetWarning,0825.1,5.00,000.00,022.8,022.0,000.0,031.4,024.6,10.5,0000.0,0008.27,0003.26,0002.51
2024-02-14 04:28:00,SystemResetWarning,0825.1,5.00,000.00,022.8,022.0,000.0,031.4,024.6,10.6,0000.0,0008.97,0003.24,0002.52
2024-02-14 04:29:00,SystemResetWarning,0825.1,5.00,000.00,022.7,022.0,000.0,031.3,024.6,10.6,0000.0,0008.90,0003.25,0002.50
2024-02-14 04:30:00,SystemResetWarning,0825.1,5.00,000.00,022.7,022.0,000.0,031.3,024.6,10.7,0000.0,0008.67,0003.20,0002.48
2024-02-14 04:31:00,SystemResetWarning,0825.1,5.00,000.00,022.7,022.0,000.0,031.3,024.6,10.8,0000.0,0008.90,0003.19,0002.46
2024-02-14 04:32:00,SystemResetWarning,0825.1,5.00,000.00,022.7,022.0,000.0,031.3,024.5,10.6,0000.0,0008.92,0003.21,0002.47
2024-02-14 04:33:00,SystemResetWarning,0825.1,5.00,000.00,022.7,022.0,000.0,031.3,024.5,11.0,0000.0,0008.74,0003.24,0002.51
2024-02-14 04:34:00,SystemResetWarning,0825.1,5.00,000.00,022.7,022.0,000.0,031.3,024.5,11.3,0000.0,0008.68,0003.25,0002.53
2024-02-14 04:35:00,SystemResetWarning,0825.1,5.00,000.00,022.7,022.0,000.0,031.3,024.5,11.6,0000.0,0008.67,0003.26,0002.55
2024-02-14 04:36:00,SystemResetWarning,0825.1,5.00,000.00,022.7,021.9,000.0,031.3,024.5,12.0,0000.0,0009.15,0003.31,0002.58
2024-02-14 04:37:00,SystemResetWarning,0825.1,5.00,000.00,022.6,021.9,000.0,031.3,024.5,11.9,0000.0,0008.73,0003.30,0002.61
2024-02-14 04:38:00,SystemResetWarning,0825.1,5.00,000.00,022.6,021.9,000.0,031.3,024.5,11.4,0000.0,0008.35,0003.29,0002.64
2024-02-14 04:39:00,SystemResetWarning,0825.1,5.01,000.00,022.6,021.9,000.0,031.2,024.5,11.3,0000.0,0007.78,0003.34,0002.71
2024-02-14 04:40:00,SystemResetWarning,0825.1,5.00,000.00,022.6,021.9,000.0,031.2,024.5,11.6,0000.0,0007.50,0003.39,0002.82
2024-02-14 04:41:00,SystemResetWarning,0825.1,5.00,000.00,022.6,021.9,000.0,031.2,024.5,11.8,0000.0,0007.61,0003.51,0003.00
2024-02-14 04:42:00,SystemResetWarning,0825.0,5.00,000.00,022.6,021.9,000.0,031.2,024.5,11.9,0000.0,0007.36,0003.62,0003.16
2024-02-14 04:43:00,SystemResetWarning,0825.0,5.00,000.00,022.6,021.9,000.0,031.2,024.4,12.0,0000.0,0007.57,0003.75,0003.30
2024-02-14 04:44:00,SystemResetWarning,0825.0,4.99,000.00,022.6,021.9,000.0,031.2,024.4,12.0,0000.0,0007.76,0003.86,0003.42
2024-02-14 04:45:00,SystemResetWarning,0824.9,4.99,000.00,022.6,021.8,000.0,031.2,024.5,12.0,0000.0,0008.89,0003.98,0003.49
2024-02-14 04:46:00,SystemResetWarning,0824.9,5.00,000.00,022.6,021.9,000.0,031.2,024.5,12.0,0000.0,0009.04,0004.07,0003.56
2024-02-14 04:47:00,SystemResetWarning,0825.0,5.00,000.00,022.6,021.9,000.0,031.2,024.5,11.9,0000.0,0008.61,0004.13,0003.65
2024-02-14 04:48:00,SystemResetWarning,0824.9,5.00,000.00,022.6,021.9,000.0,031.2,024.4,11.9,0000.0,0008.78,0004.26,0003.75
2024-02-14 04:49:00,SystemResetWarning,0824.9,5.00,000.00,022.6,021.9,000.0,031.2,024.4,11.8,0000.0,0009.42,0004.39,0003.85
2024-02-14 04:50:00,SystemResetWarning,0824.9,5.00,000.00,022.6,021.9,000.0,031.2,024.5,11.7,0000.0,0009.49,0004.50,0003.98
2024-02-14 04:51:00,SystemResetWarning,0824.9,4.99,000.00,022.6,021.9,000.0,031.2,024.5,11.7,0000.0,0009.63,0004.61,0004.08
2024-02-14 04:52:00,SystemResetWarning,0824.9,4.99,000.00,022.6,021.8,000.0,031.2,024.5,11.6,0000.0,0010.00,0004.71,0004.15
2024-02-14 04:53:00,SystemResetWarning,0824.9,5.01,000.00,022.5,021.8,000.0,031.1,024.4,11.7,0000.0,0010.79,0004.80,0004.20
2024-02-14 04:54:00,SystemResetWarning,0824.9,5.00,000.00,022.5,021.8,000.0,031.1,024.4,11.6,0000.0,0010.85,0004.82,0004.20
2024-02-14 04:55:00,SystemResetWarning,0824.9,5.00,000.00,022.5,021.8,000.0,031.1,024.4,11.5,0000.0,0010.84,0004.87,0004.22
2024-02-14 04:56:00,SystemResetWarning,0824.9,5.00,000.00,022.5,021.8,000.0,031.1,024.4,11.5,0000.0,0010.21,0004.95,0004.29
2024-02-14 04:57:00,SystemResetWarning,0825.0,5.00,000.00,022.5,021.8,000.0,031.1,024.4,11.5,0000.0,0010.10,0005.03,0004.38
2024-02-14 04:58:00,SystemResetWarning,0824.9,5.00,000.00,022.5,021.8,000.0,031.1,024.4,11.7,0000.0,0010.13,0005.08,0004.43
2024-02-14 04:59:00,SystemResetWarning,0824.9,5.01,000.00,022.5,021.8,000.0,031.1,024.4,11.9,0000.0,0010.47,0005.13,0004.49
